When you browse on this site, cookies collect data to enhance your experience and personalize the content and advertising you see.
Visit our Privacy Policy to learn more. By continuing to use the site, you agree to this use of cookies and data.
  • In Romania
  • List of Countries
  • For 7 days
  • Water Temperature
  • Satellite Maps
  • Weather Map
  • Weather Widgets
  • user-avatar
    Login

    Hourly Weather Borovec

    Today, 23 March, Saturday

    Time Temperature Precipitation Wind Pressure Humidity
    00:00 +8°C° 0 mm 1 mps 716 mmHg 69%
    01:00 +7°C° 0 mm 0 mps 716 mmHg 70%
    02:00 +6°C° 0 mm 0 mps 716 mmHg 71%
    03:00 +6°C° 0 mm 0 mps 716 mmHg 70%
    04:00 +6°C° 0 mm 0 mps 716 mmHg 70%
    05:00 +5°C° 0 mm 0 mps 716 mmHg 70%
    06:00 +6°C° 0 mm 0 mps 716 mmHg 67%
    07:00 +7°C° 0 mm 0 mps 716 mmHg 63%
    08:00 +8°C° 0 mm 0 mps 716 mmHg 60%
    09:00 +11°C° 0 mm 1 mps 716 mmHg 53%
    10:00 +13°C° 0 mm 1 mps 716 mmHg 47%
    11:00 +15°C° 0 mm 1 mps 716 mmHg 40%
    12:00 +16°C° 0 mm 2 mps 716 mmHg 39%
    13:00 +17°C° 0 mm 2 mps 715 mmHg 37%
    14:00 +18°C° 0 mm 2 mps 715 mmHg 36%
    15:00 +17°C° 0 mm 3 mps 715 mmHg 38%
    16:00 +17°C° 0 mm 3 mps 714 mmHg 40%
    17:00 +17°C° 0 mm 3 mps 714 mmHg 42%
    18:00 +14°C° 0 mm 3 mps 714 mmHg 49%
    19:00 +13°C° 0 mm 2 mps 714 mmHg 56%
    20:00 +11°C° 0 mm 1 mps 714 mmHg 64%
    21:00 +11°C° 0 mm 1 mps 714 mmHg 66%
    22:00 +10°C° 0 mm 1 mps 715 mmHg 69%
    23:00 +9°C° 0 mm 1 mps 715 mmHg 72%

    Tomorrow, 24 March, Sunday

    Time Temperature Precipitation Wind Pressure Humidity
    00:00 +9°C° 0 mm 1 mps 715 mmHg 74%
    01:00 +8°C° 0 mm 1 mps 715 mmHg 76%
    02:00 +8°C° 0 mm 1 mps 715 mmHg 78%
    03:00 +8°C° 0 mm 1 mps 715 mmHg 79%
    04:00 +6°C° 0 mm 0 mps 715 mmHg 80%
    05:00 +6°C° 0 mm 0 mps 715 mmHg 81%
    06:00 +7°C° 0 mm 0 mps 715 mmHg 79%
    07:00 +7°C° 0 mm 0 mps 715 mmHg 77%
    08:00 +9°C° 0 mm 1 mps 716 mmHg 75%
    09:00 +11°C° 0 mm 1 mps 716 mmHg 67%
    10:00 +12°C° 0 mm 2 mps 716 mmHg 58%
    11:00 +14°C° 0 mm 2 mps 716 mmHg 49%
    12:00 +15°C° 0 mm 2 mps 715 mmHg 44%
    13:00 +16°C° 0 mm 2 mps 715 mmHg 39%
    14:00 +17°C° 0 mm 3 mps 714 mmHg 34%
    15:00 +16°C° 0 mm 3 mps 714 mmHg 34%
    16:00 +16°C° 0 mm 2 mps 713 mmHg 34%
    17:00 +16°C° 0 mm 2 mps 713 mmHg 34%
    18:00 +14°C° 0 mm 2 mps 713 mmHg 39%
    19:00 +12°C° 0 mm 1 mps 713 mmHg 45%
    20:00 +11°C° 0 mm 1 mps 713 mmHg 50%
    21:00 +10°C° 0 mm 1 mps 713 mmHg 52%
    22:00 +10°C° 0 mm 1 mps 713 mmHg 54%
    23:00 +8°C° 0 mm 0 mps 713 mmHg 56%

    Day after tomorrow, 25 March, Monday

    Time Temperature Precipitation Wind Pressure Humidity
    00:00 +8°C° 0 mm 0 mps 712 mmHg 57%
    01:00 +7°C° 0 mm 0 mps 712 mmHg 57%
    02:00 +8°C° 0 mm 1 mps 712 mmHg 58%
    03:00 +8°C° 0 mm 1 mps 711 mmHg 58%
    04:00 +7°C° 0 mm 1 mps 711 mmHg 58%
    05:00 +7°C° 0 mm 1 mps 711 mmHg 58%
    06:00 +8°C° 0 mm 1 mps 711 mmHg 56%
    07:00 +9°C° 0 mm 1 mps 711 mmHg 53%
    08:00 +10°C° 0 mm 1 mps 711 mmHg 51%
    09:00 +12°C° 0 mm 1 mps 711 mmHg 45%
    10:00 +14°C° 0 mm 1 mps 711 mmHg 40%
    11:00 +16°C° 0 mm 2 mps 710 mmHg 35%
    12:00 +17°C° 0 mm 2 mps 710 mmHg 31%
    13:00 +18°C° 0 mm 2 mps 709 mmHg 28%
    14:00 +19°C° 0 mm 2 mps 709 mmHg 24%
    15:00 +19°C° 0 mm 2 mps 708 mmHg 25%
    16:00 +19°C° 0 mm 2 mps 708 mmHg 26%
    17:00 +18°C° 0 mm 2 mps 707 mmHg 26%
    18:00 +16°C° 0 mm 2 mps 707 mmHg 32%
    19:00 +14°C° 0 mm 1 mps 707 mmHg 37%
    20:00 +12°C° 0 mm 1 mps 707 mmHg 43%
    21:00 +12°C° 0 mm 1 mps 707 mmHg 45%
    22:00 +11°C° 0 mm 1 mps 707 mmHg 47%
    23:00 +9°C° 0 mm 0 mps 707 mmHg 49%

    26 March, Tuesday

    Time Temperature Precipitation Wind Pressure Humidity
    00:00 +9°C° 0 mm 0 mps 707 mmHg 50%
    01:00 +8°C° 0 mm 0 mps 706 mmHg 51%
    02:00 +9°C° 0 mm 1 mps 706 mmHg 53%
    03:00 +9°C° 0 mm 1 mps 707 mmHg 55%
    04:00 +8°C° 0 mm 1 mps 707 mmHg 58%
    05:00 +8°C° 0 mm 1 mps 707 mmHg 60%
    06:00 +7°C° 0.3 mm 2 mps 708 mmHg 65%
    07:00 +5°C° 0.3 mm 3 mps 709 mmHg 70%
    08:00 +5°C° 0.3 mm 3 mps 709 mmHg 75%
    09:00 +7°C° 0.1 mm 3 mps 710 mmHg 70%
    10:00 +7°C° 0.1 mm 3 mps 710 mmHg 64%
    11:00 +8°C° 0.1 mm 3 mps 710 mmHg 58%
    12:00 +7°C° 0 mm 4 mps 710 mmHg 55%
    13:00 +8°C° 0 mm 4 mps 710 mmHg 51%
    14:00 +8°C° 0 mm 4 mps 710 mmHg 47%
    15:00 +8°C° 0 mm 4 mps 710 mmHg 47%
    16:00 +7°C° 0 mm 4 mps 710 mmHg 47%
    17:00 +7°C° 0 mm 4 mps 710 mmHg 47%
    18:00 +7°C° 0.1 mm 3 mps 710 mmHg 49%
    19:00 +6°C° 0.1 mm 2 mps 711 mmHg 51%
    20:00 +6°C° 0.1 mm 2 mps 711 mmHg 53%
    21:00 +5°C° 0.1 mm 2 mps 712 mmHg 55%
    22:00 +5°C° 0.1 mm 2 mps 712 mmHg 57%
    23:00 +5°C° 0.1 mm 2 mps 712 mmHg 59%

    27 March, Wednesday

    Time Temperature Precipitation Wind Pressure Humidity
    00:00 +5°C° 0.3 mm 2 mps 713 mmHg 65%
    01:00 +4°C° 0.3 mm 2 mps 713 mmHg 70%
    02:00 +4°C° 0.3 mm 2 mps 713 mmHg 76%
    03:00 +4°C° 0.4 mm 2 mps 713 mmHg 79%
    04:00 +3°C° 0.4 mm 2 mps 713 mmHg 82%
    05:00 +2°C° 0.4 mm 3 mps 713 mmHg 86%
    06:00 +2°C° 0.1 mm 3 mps 714 mmHg 84%
    07:00 +2°C° 0.1 mm 3 mps 714 mmHg 82%
    08:00 +2°C° 0.1 mm 3 mps 714 mmHg 80%
    09:00 +3°C° 0 mm 3 mps 715 mmHg 73%
    10:00 +4°C° 0 mm 3 mps 715 mmHg 67%
    11:00 +5°C° 0 mm 3 mps 715 mmHg 61%
    12:00 +7°C° 0 mm 3 mps 715 mmHg 58%
    13:00 +7°C° 0 mm 3 mps 714 mmHg 56%
    14:00 +8°C° 0 mm 3 mps 714 mmHg 53%
    15:00 +8°C° 0.1 mm 3 mps 714 mmHg 53%
    16:00 +7°C° 0.1 mm 3 mps 714 mmHg 53%
    17:00 +7°C° 0.1 mm 3 mps 714 mmHg 53%
    18:00 +6°C° 0 mm 2 mps 714 mmHg 58%
    19:00 +5°C° 0 mm 2 mps 715 mmHg 63%
    20:00 +5°C° 0 mm 1 mps 715 mmHg 68%
    21:00 +4°C° 0 mm 1 mps 715 mmHg 69%
    22:00 +3°C° 0 mm 1 mps 715 mmHg 71%
    23:00 +3°C° 0 mm 1 mps 716 mmHg 72%

    28 March, Thursday

    Time Temperature Precipitation Wind Pressure Humidity
    00:00 +3°C° 0 mm 1 mps 716 mmHg 73%
    01:00 +2°C° 0 mm 1 mps 716 mmHg 74%
    02:00 +2°C° 0 mm 1 mps 716 mmHg 75%
    03:00 0°C° 0 mm 0 mps 716 mmHg 75%
    04:00 0°C° 0 mm 0 mps 716 mmHg 75%
    05:00 0°C° 0 mm 0 mps 716 mmHg 75%
    06:00 +1°C° 0 mm 0 mps 717 mmHg 71%
    07:00 +2°C° 0 mm 0 mps 717 mmHg 67%
    08:00 +3°C° 0 mm 0 mps 717 mmHg 62%
    09:00 +6°C° 0 mm 1 mps 718 mmHg 56%
    10:00 +6°C° 0 mm 2 mps 718 mmHg 50%
    11:00 +8°C° 0 mm 2 mps 718 mmHg 44%
    12:00 +8°C° 0 mm 3 mps 718 mmHg 43%
    13:00 +9°C° 0 mm 3 mps 717 mmHg 42%
    14:00 +8°C° 0 mm 4 mps 717 mmHg 41%
    15:00 +8°C° 0 mm 4 mps 717 mmHg 44%
    16:00 +7°C° 0 mm 4 mps 717 mmHg 47%
    17:00 +7°C° 0 mm 4 mps 717 mmHg 50%
    18:00 +5°C° 0 mm 4 mps 717 mmHg 55%
    19:00 +4°C° 0 mm 3 mps 717 mmHg 60%
    20:00 +3°C° 0 mm 2 mps 717 mmHg 65%
    21:00 +3°C° 0 mm 2 mps 717 mmHg 66%
    22:00 +3°C° 0 mm 1 mps 717 mmHg 66%
    23:00 +3°C° 0 mm 1 mps 718 mmHg 66%
    Show more